This is the latest recevied weather packets stored in our database for station/object N4ASP-13. If no packets are shown the sender has not sent any weather packets the latest 10 day(s).
| Time | Temp. | Humidity | Pressure | Rain* | Wind** | Luminosity | Snow |
|---|---|---|---|---|---|---|---|
| 1778019383 | 21.11° C | 47% | 1013.7 hPa | 0 mm | - | 522 W/m² | - |
| 1778019319 | 21.11° C | 47% | 1013.7 hPa | 0 mm | - | 452 W/m² | - |
| 1778019256 | 21.11° C | 47% | 1013.7 hPa | 0 mm | - | 374 W/m² | - |
| 1778019198 | 21.11° C | 47% | 1013.7 hPa | 0 mm | - | 318 W/m² | - |
| 1778019136 | 21.11° C | 46% | 1013.8 hPa | 0 mm | - | 251 W/m² | - |
| 1778019076 | 21.11° C | 46% | 1013.8 hPa | 0 mm | - | 207 W/m² | - |
| 1778019009 | 21.11° C | 46% | 1013.8 hPa | 0 mm | - | 193 W/m² | - |
| 1778018946 | 21.11° C | 47% | 1013.8 hPa | 0 mm | - | 186 W/m² | - |
| 1778018888 | 21.11° C | 46% | 1013.8 hPa | 0 mm | - | 178 W/m² | - |
| 1778018827 | 21.11° C | 46% | 1013.8 hPa | 0 mm | - | 174 W/m² | - |
| 1778018767 | 21.11° C | 47% | 1013.8 hPa | 0 mm | - | 174 W/m² | - |
| 1778018700 | 21.11° C | 46% | 1013.8 hPa | 0 mm | - | 113 W/m² | - |
| 1778018641 | 21.11° C | 45% | 1013.8 hPa | 0 mm | - | 169 W/m² | - |
| 1778018581 | 21.11° C | 45% | 1013.8 hPa | 0 mm | - | 163 W/m² | - |
| 1778018521 | 21.67° C | 46% | 1013.7 hPa | 0 mm | - | 158 W/m² | - |
| 1778018461 | 21.67° C | 46% | 1013.9 hPa | 0 mm | - | 153 W/m² | - |
| 1778018397 | 21.67° C | 46% | 1013.8 hPa | 0 mm | - | 151 W/m² | - |
| 1778018336 | 21.67° C | 46% | 1013.8 hPa | 0 mm | - | 148 W/m² | - |
| 1778018277 | 21.67° C | 45% | 1013.9 hPa | 0 mm | - | 155 W/m² | - |
| 1778018218 | 21.67° C | 46% | 1013.8 hPa | 0 mm | - | 169 W/m² | - |
| 1778018155 | 21.67° C | 45% | 1013.9 hPa | 0 mm | - | 162 W/m² | - |
| 1778018088 | 21.67° C | 45% | 1013.8 hPa | 0 mm | - | 176 W/m² | - |
| 1778018025 | 21.67° C | 45% | 1013.9 hPa | 0 mm | - | 241 W/m² | - |
| 1778017965 | 21.67° C | 45% | 1014 hPa | 0 mm | - | 297 W/m² | - |
| 1778017904 | 21.67° C | 46% | 1014 hPa | 0 mm | - | 334 W/m² | - |
* Rain latest hour (hover to see other rain measurements)
** Current wind speed in m/s (hover to see current wind gust speed)